Other Public Products
Issued by NWS Charleston, SC

Current Version | Previous Version | Text Only | Print | Product List | Glossary Off
Versions: 1 2 3 4 5 6 7 8 9 10 11 12 13 14 15 16 17 18 19 20 21 22 23 24 25 26 27 28 29 30 31 32 33 34 35 36 37 38 39 40 41 42 43 44 45 46 47 48 49 50
000 FPUS82 KCHS 212012 OPUCHS TEST...KCHS/KSAV Gateway Observations...TEST National Weather Service Charleston SC 300 PM EST TUE NOV 21 2017 NOTE: "fair" indicates few or no clouds below 12,000 feet with no significant weather and/or obstructions to visibility. SCZ050-WAZ558-NCZ071-TXZ119-213-PAZ071-DCZ001-FLZ074-172-MI076- NYZ176-178-MAZ016-IL014-TNZ027-NJZ106-GAZ044-MD014-212100- ...Gateway Observations for Charleston International... CITY SKY/WX TMP DP RH WIND PRES REMARKS Chas Airport CLOUDY 70 58 65 E8 30.04F Seattle LGT RAIN 46 45 96 CALM 29.90F FOG Charlotte CLOUDY 61 47 59 CALM 30.09S Dallas DFW PTSUNNY 69 49 48 NE9 29.91R Dallas Love PTSUNNY 68 49 50 N7 29.92R Philladelphia CLOUDY 59 32 36 SW20G25 30.02F Wash National CLOUDY 61 40 45 S10 30.03F Baltimore PTSUNNY 60 35 39 SW10G21 30.02S Miami MOSUNNY 80 69 69 NW6 29.92S Detroit CLOUDY 49 33 54 SW15 29.78R Newark PTSUNNY 58 29 33 S17 30.01F Laguardia PTSUNNY 59 29 31 SW13G20 30.02F J F K PTSUNNY 54 42 64 S16 30.05F Boston Logan MOSUNNY 57 32 38 SW23G32 29.99S Ft. Lauderdale MOSUNNY 82 70 66 SE9 29.90F Chicago O`Hare CLOUDY 39 20 46 NW18 29.88R WCI 30 Chicago Midway CLOUDY 39 20 46 NW14 29.90R WCI 31 Houston Bush CLOUDY 76 62 62 W7 29.87S Houston Hobby CLOUDY 74 63 68 CALM 29.86S Nashville PTSUNNY 59 27 29 SW8 30.01F Atlanta MOSUNNY 66 53 63 SE3 30.02F $$ GAZ044-118-TXZ119-213-NCZ071-DCZ001-MDZ014-506-PAZ021-071-NJZ106- NYZ176-178-MAZ106-OHZ011-021-055-MIZ076-KYZ091-ILZ014-INZ047- MNZ060-ONZ431-212100- ...Gateway Observations for Savannah International... CITY SKY/WX TMP DP RH WIND PRES REMARKS Savannah Arpt CLOUDY 71 59 65 E7 30.00F Atlanta MOSUNNY 66 53 63 SE3 30.02F Charlotte CLOUDY 61 47 59 CALM 30.09S Dallas DFW PTSUNNY 69 49 48 NE9 29.91R Houston Bush CLOUDY 76 62 62 W7 29.87S Wash National CLOUDY 61 40 45 S10 30.03F Wash Dulles CLOUDY 60 37 42 S16 30.01F Baltimore PTSUNNY 60 35 39 SW10G21 30.02S Philadelphia CLOUDY 59 32 36 SW20G25 30.02F Newark PTSUNNY 58 29 33 S17 30.01F Laguardia PTSUNNY 59 29 31 SW13G20 30.02F J F K PTSUNNY 54 42 64 S16 30.05F Boston MOSUNNY 57 32 38 SW23G32 29.99S Pittsburg MOSUNNY 56 24 29 SW13G24 29.89S Akron PTSUNNY 52 28 39 SW20G31 29.86S Cleveland CLOUDY 54 31 41 SW14G25 29.84R Cincinnati PTSUNNY 56 32 40 SW16G22 29.91F Columbus SUNNY 54 31 41 SW18G31 29.90S Detroit CLOUDY 49 33 54 SW15 29.78R Chicago O`Hare CLOUDY 39 20 46 NW18 29.88R WCI 30 Minneapolis SUNNY 28 11 48 NW18 30.15R WCI 15 Indianapolis CLOUDY 51 34 52 SW16 29.91R Toronto Canada PTSUNNY 52 34 50 SW25G32 29.71R $$

USA.gov is the U.S. government's official web portal to all federal, state and local government web resources and services.